When you browse on this site, cookies collect data to enhance your experience and personalize the content and advertising you see.
Visit our Privacy Policy to learn more. By continuing to use the site, you agree to this use of cookies and data.
  • In Netherlands
  • List of Countries
  • For 7 days
  • Water Temperature
  • Weather Map
  • Weather Widgets
  • user-avatar
    Login

    Hourly Weather Idzhewan

    Today, 19 September, Thursday

    Time Temperature Precipitation Wind Pressure Humidity
    00:00 +18°C° 0 mm 2 mps 695 mmHg 60%
    01:00 +18°C° 0 mm 2 mps 695 mmHg 59%
    02:00 +18°C° 0 mm 2 mps 695 mmHg 57%
    03:00 +17°C° 0 mm 2 mps 695 mmHg 55%
    04:00 +17°C° 0 mm 2 mps 695 mmHg 54%
    05:00 +17°C° 0 mm 2 mps 695 mmHg 53%
    06:00 +17°C° 0 mm 2 mps 695 mmHg 51%
    07:00 +20°C° 0 mm 2 mps 695 mmHg 47%
    08:00 +24°C° 0 mm 1 mps 695 mmHg 42%
    09:00 +27°C° 0 mm 1 mps 696 mmHg 38%
    10:00 +28°C° 0 mm 1 mps 696 mmHg 37%
    11:00 +29°C° 0 mm 1 mps 695 mmHg 35%
    12:00 +30°C° 0 mm 2 mps 695 mmHg 34%
    13:00 +29°C° 0 mm 2 mps 695 mmHg 35%
    14:00 +29°C° 0 mm 2 mps 695 mmHg 36%
    15:00 +29°C° 0 mm 2 mps 694 mmHg 37%
    16:00 +27°C° 0 mm 2 mps 694 mmHg 41%
    17:00 +25°C° 0 mm 1 mps 694 mmHg 45%
    18:00 +23°C° 0 mm 1 mps 694 mmHg 50%
    19:00 +22°C° 0 mm 1 mps 694 mmHg 51%
    20:00 +21°C° 0 mm 1 mps 694 mmHg 52%
    21:00 +20°C° 0 mm 1 mps 695 mmHg 53%
    22:00 +20°C° 0 mm 1 mps 694 mmHg 54%
    23:00 +19°C° 0 mm 1 mps 694 mmHg 55%

    Tomorrow, 20 September, Friday

    Time Temperature Precipitation Wind Pressure Humidity
    00:00 +19°C° 0 mm 1 mps 694 mmHg 56%
    01:00 +18°C° 0 mm 1 mps 694 mmHg 58%
    02:00 +18°C° 0 mm 1 mps 694 mmHg 59%
    03:00 +16°C° 0 mm 1 mps 694 mmHg 61%
    04:00 +16°C° 0 mm 1 mps 693 mmHg 63%
    05:00 +15°C° 0 mm 1 mps 693 mmHg 65%
    06:00 +15°C° 0 mm 1 mps 693 mmHg 67%
    07:00 +18°C° 0 mm 1 mps 693 mmHg 65%
    08:00 +20°C° 0 mm 1 mps 693 mmHg 62%
    09:00 +22°C° 0 mm 1 mps 693 mmHg 59%
    10:00 +23°C° 0 mm 2 mps 693 mmHg 58%
    11:00 +24°C° 0 mm 2 mps 693 mmHg 57%
    12:00 +25°C° 0 mm 2 mps 692 mmHg 56%
    13:00 +25°C° 0 mm 2 mps 692 mmHg 57%
    14:00 +25°C° 0 mm 2 mps 691 mmHg 59%
    15:00 +25°C° 0 mm 2 mps 690 mmHg 61%
    16:00 +24°C° 0 mm 2 mps 690 mmHg 67%
    17:00 +22°C° 0 mm 1 mps 690 mmHg 73%
    18:00 +21°C° 0 mm 1 mps 689 mmHg 79%
    19:00 +20°C° 0 mm 1 mps 689 mmHg 81%
    20:00 +19°C° 0 mm 1 mps 689 mmHg 83%
    21:00 +19°C° 0 mm 1 mps 689 mmHg 86%
    22:00 +18°C° 0 mm 1 mps 689 mmHg 85%
    23:00 +18°C° 0 mm 1 mps 689 mmHg 84%

    Day after tomorrow, 21 September, Saturday

    Time Temperature Precipitation Wind Pressure Humidity
    00:00 +18°C° 0 mm 1 mps 689 mmHg 83%
    01:00 +18°C° 0 mm 1 mps 688 mmHg 85%
    02:00 +18°C° 0 mm 1 mps 688 mmHg 87%
    03:00 +18°C° 0 mm 1 mps 688 mmHg 89%
    04:00 +18°C° 0 mm 1 mps 688 mmHg 88%
    05:00 +18°C° 0 mm 1 mps 688 mmHg 87%
    06:00 +18°C° 0 mm 1 mps 688 mmHg 86%
    07:00 +20°C° 0 mm 1 mps 688 mmHg 79%
    08:00 +21°C° 0 mm 1 mps 688 mmHg 73%
    09:00 +22°C° 0 mm 1 mps 688 mmHg 66%
    10:00 +23°C° 0 mm 2 mps 688 mmHg 61%
    11:00 +24°C° 0 mm 3 mps 688 mmHg 56%
    12:00 +26°C° 0 mm 3 mps 688 mmHg 51%
    13:00 +23°C° 0.2 mm 4 mps 688 mmHg 56%
    14:00 +21°C° 0.2 mm 5 mps 688 mmHg 62%
    15:00 +19°C° 0.2 mm 5 mps 687 mmHg 67%
    16:00 +17°C° 0 mm 4 mps 688 mmHg 68%
    17:00 +16°C° 0 mm 3 mps 689 mmHg 68%
    18:00 +15°C° 0 mm 2 mps 689 mmHg 69%
    19:00 +14°C° 0 mm 2 mps 690 mmHg 69%
    20:00 +14°C° 0 mm 2 mps 691 mmHg 69%
    21:00 +13°C° 0 mm 1 mps 692 mmHg 70%
    22:00 +12°C° 0 mm 1 mps 692 mmHg 72%
    23:00 +11°C° 0 mm 1 mps 692 mmHg 74%

    22 September, Sunday

    Time Temperature Precipitation Wind Pressure Humidity
    00:00 +10°C° 0 mm 1 mps 693 mmHg 77%
    01:00 +10°C° 0 mm 1 mps 693 mmHg 77%
    02:00 +10°C° 0 mm 1 mps 693 mmHg 78%
    03:00 +9°C° 0 mm 1 mps 693 mmHg 78%
    04:00 +9°C° 0 mm 1 mps 694 mmHg 77%
    05:00 +9°C° 0 mm 1 mps 694 mmHg 77%
    06:00 +9°C° 0 mm 1 mps 694 mmHg 76%
    07:00 +11°C° 0 mm 1 mps 695 mmHg 69%
    08:00 +13°C° 0 mm 2 mps 695 mmHg 62%
    09:00 +15°C° 0 mm 2 mps 695 mmHg 56%
    10:00 +16°C° 0 mm 2 mps 695 mmHg 54%
    11:00 +17°C° 0 mm 3 mps 695 mmHg 52%
    12:00 +17°C° 0 mm 3 mps 695 mmHg 50%
    13:00 +18°C° 0 mm 3 mps 695 mmHg 51%
    14:00 +18°C° 0 mm 3 mps 694 mmHg 51%
    15:00 +18°C° 0 mm 3 mps 694 mmHg 51%
    16:00 +16°C° 0 mm 2 mps 693 mmHg 56%
    17:00 +15°C° 0 mm 1 mps 693 mmHg 61%
    18:00 +13°C° 0 mm 1 mps 693 mmHg 66%
    19:00 +13°C° 0 mm 1 mps 693 mmHg 68%
    20:00 +12°C° 0 mm 1 mps 693 mmHg 70%
    21:00 +12°C° 0 mm 1 mps 694 mmHg 71%
    22:00 +11°C° 0 mm 1 mps 694 mmHg 72%
    23:00 +11°C° 0 mm 1 mps 693 mmHg 73%

    23 September, Monday

    Time Temperature Precipitation Wind Pressure Humidity
    00:00 +11°C° 0 mm 1 mps 693 mmHg 74%
    01:00 +11°C° 0 mm 1 mps 693 mmHg 75%
    02:00 +10°C° 0 mm 1 mps 693 mmHg 75%
    03:00 +10°C° 0 mm 1 mps 693 mmHg 76%
    04:00 +10°C° 0 mm 1 mps 693 mmHg 76%
    05:00 +10°C° 0 mm 1 mps 693 mmHg 76%
    06:00 +9°C° 0 mm 1 mps 693 mmHg 76%
    07:00 +12°C° 0 mm 1 mps 693 mmHg 68%
    08:00 +14°C° 0 mm 1 mps 694 mmHg 60%
    09:00 +18°C° 0 mm 1 mps 694 mmHg 53%
    10:00 +18°C° 0 mm 2 mps 694 mmHg 50%
    11:00 +19°C° 0 mm 2 mps 694 mmHg 47%
    12:00 +20°C° 0 mm 2 mps 694 mmHg 45%
    13:00 +21°C° 0 mm 2 mps 694 mmHg 45%
    14:00 +21°C° 0 mm 2 mps 693 mmHg 45%
    15:00 +21°C° 0 mm 2 mps 693 mmHg 45%
    16:00 +19°C° 0 mm 2 mps 693 mmHg 50%
    17:00 +18°C° 0 mm 1 mps 693 mmHg 55%
    18:00 +15°C° 0 mm 1 mps 693 mmHg 60%
    19:00 +15°C° 0 mm 1 mps 693 mmHg 61%
    20:00 +14°C° 0 mm 1 mps 694 mmHg 62%
    21:00 +14°C° 0 mm 1 mps 695 mmHg 63%
    22:00 +13°C° 0 mm 1 mps 695 mmHg 64%
    23:00 +11°C° 0 mm 0 mps 695 mmHg 64%

    24 September, Tuesday

    Time Temperature Precipitation Wind Pressure Humidity
    00:00 +11°C° 0 mm 0 mps 695 mmHg 64%
    01:00 +10°C° 0 mm 0 mps 695 mmHg 66%
    02:00 +10°C° 0 mm 0 mps 695 mmHg 68%
    03:00 +10°C° 0 mm 0 mps 695 mmHg 70%
    04:00 +10°C° 0 mm 0 mps 695 mmHg 70%
    05:00 +10°C° 0 mm 0 mps 695 mmHg 71%
    06:00 +10°C° 0 mm 0 mps 695 mmHg 71%
    07:00 +12°C° 0 mm 1 mps 695 mmHg 70%
    08:00 +13°C° 0 mm 1 mps 695 mmHg 70%
    09:00 +14°C° 0 mm 1 mps 695 mmHg 70%
    10:00 +15°C° 0 mm 2 mps 695 mmHg 69%
    11:00 +17°C° 0 mm 2 mps 695 mmHg 68%
    12:00 +18°C° 0 mm 3 mps 695 mmHg 67%
    13:00 +17°C° 0 mm 2 mps 695 mmHg 71%
    14:00 +17°C° 0 mm 2 mps 694 mmHg 74%
    15:00 +17°C° 0 mm 2 mps 694 mmHg 78%
    16:00 +16°C° 0 mm 2 mps 694 mmHg 81%
    17:00 +15°C° 0 mm 1 mps 693 mmHg 83%
    18:00 +15°C° 0 mm 1 mps 693 mmHg 86%
    19:00 +14°C° 0 mm 1 mps 694 mmHg 88%
    20:00 +13°C° 0 mm 0 mps 694 mmHg 90%
    21:00 +12°C° 0 mm 0 mps 694 mmHg 92%
    22:00 +12°C° 0 mm 0 mps 694 mmHg 91%
    23:00 +12°C° 0 mm 0 mps 693 mmHg 90%
    Show more